When you browse on this site, cookies collect data to enhance your experience and personalize the content and advertising you see.
Visit our Privacy Policy to learn more. By continuing to use the site, you agree to this use of cookies and data.
  • In United Kingdom
  • List of Countries
  • For 7 days
  • Water Temperature
  • Satellite Maps
  • Weather Map
  • Weather Widgets
  • user-avatar
    Login

    Hourly Weather Riga

    Today, 26 April, Friday

    Time Temperature Precipitation Wind Pressure Humidity
    00:00 +15°C° 0.2 mm 2 mps 762 mmHg 73%
    01:00 +14°C° 0.2 mm 2 mps 762 mmHg 76%
    02:00 +13°C° 0 mm 1 mps 762 mmHg 77%
    03:00 +13°C° 0 mm 2 mps 762 mmHg 79%
    04:00 +13°C° 0 mm 2 mps 762 mmHg 81%
    05:00 +12°C° 0 mm 2 mps 762 mmHg 83%
    06:00 +14°C° 0 mm 2 mps 761 mmHg 77%
    07:00 +15°C° 0 mm 2 mps 761 mmHg 72%
    08:00 +17°C° 0 mm 3 mps 761 mmHg 66%
    09:00 +18°C° 0 mm 2 mps 761 mmHg 60%
    10:00 +20°C° 0 mm 2 mps 761 mmHg 54%
    11:00 +23°C° 0 mm 2 mps 760 mmHg 48%
    12:00 +24°C° 0.1 mm 2 mps 760 mmHg 46%
    13:00 +25°C° 0.1 mm 2 mps 760 mmHg 44%
    14:00 +26°C° 0.1 mm 2 mps 759 mmHg 41%
    15:00 +26°C° 1 mm 2 mps 759 mmHg 42%
    16:00 +26°C° 1 mm 1 mps 759 mmHg 43%
    17:00 +25°C° 1 mm 1 mps 759 mmHg 45%
    18:00 +23°C° 0.8 mm 1 mps 758 mmHg 51%
    19:00 +22°C° 0.8 mm 1 mps 758 mmHg 58%
    20:00 +20°C° 0.8 mm 1 mps 758 mmHg 64%
    21:00 +18°C° 0 mm 2 mps 758 mmHg 67%
    22:00 +17°C° 0 mm 2 mps 758 mmHg 69%
    23:00 +16°C° 0 mm 2 mps 758 mmHg 71%

    Tomorrow, 27 April, Saturday

    Time Temperature Precipitation Wind Pressure Humidity
    00:00 +16°C° 0 mm 2 mps 758 mmHg 73%
    01:00 +15°C° 0 mm 2 mps 758 mmHg 75%
    02:00 +15°C° 0 mm 2 mps 757 mmHg 77%
    03:00 +14°C° 0 mm 2 mps 757 mmHg 78%
    04:00 +14°C° 0 mm 2 mps 757 mmHg 80%
    05:00 +13°C° 0 mm 2 mps 757 mmHg 82%
    06:00 +15°C° 0 mm 1 mps 757 mmHg 76%
    07:00 +18°C° 0 mm 1 mps 756 mmHg 70%
    08:00 +19°C° 0 mm 1 mps 756 mmHg 64%
    09:00 +21°C° 0 mm 1 mps 756 mmHg 57%
    10:00 +23°C° 0 mm 2 mps 756 mmHg 50%
    11:00 +25°C° 0 mm 2 mps 756 mmHg 43%
    12:00 +26°C° 0 mm 2 mps 756 mmHg 41%
    13:00 +27°C° 0 mm 2 mps 755 mmHg 38%
    14:00 +28°C° 0 mm 2 mps 755 mmHg 36%
    15:00 +27°C° 0 mm 3 mps 755 mmHg 38%
    16:00 +26°C° 0 mm 3 mps 755 mmHg 40%
    17:00 +25°C° 0 mm 4 mps 755 mmHg 42%
    18:00 +22°C° 0 mm 4 mps 755 mmHg 47%
    19:00 +21°C° 0 mm 4 mps 755 mmHg 53%
    20:00 +19°C° 0 mm 4 mps 755 mmHg 58%
    21:00 +19°C° 0 mm 4 mps 755 mmHg 60%
    22:00 +18°C° 0 mm 4 mps 756 mmHg 63%
    23:00 +17°C° 0 mm 4 mps 756 mmHg 65%

    Day after tomorrow, 28 April, Sunday

    Time Temperature Precipitation Wind Pressure Humidity
    00:00 +17°C° 0 mm 4 mps 756 mmHg 67%
    01:00 +15°C° 0 mm 4 mps 756 mmHg 69%
    02:00 +15°C° 0 mm 4 mps 757 mmHg 72%
    03:00 +14°C° 0 mm 4 mps 757 mmHg 74%
    04:00 +14°C° 0 mm 4 mps 757 mmHg 75%
    05:00 +13°C° 0 mm 4 mps 757 mmHg 77%
    06:00 +14°C° 0 mm 4 mps 758 mmHg 73%
    07:00 +15°C° 0 mm 5 mps 758 mmHg 68%
    08:00 +15°C° 0 mm 5 mps 759 mmHg 63%
    09:00 +17°C° 0 mm 5 mps 759 mmHg 59%
    10:00 +19°C° 0 mm 5 mps 760 mmHg 54%
    11:00 +20°C° 0 mm 5 mps 760 mmHg 49%
    12:00 +21°C° 0 mm 5 mps 760 mmHg 47%
    13:00 +21°C° 0 mm 5 mps 760 mmHg 45%
    14:00 +22°C° 0 mm 5 mps 760 mmHg 42%
    15:00 +21°C° 0 mm 5 mps 761 mmHg 42%
    16:00 +21°C° 0 mm 5 mps 761 mmHg 41%
    17:00 +20°C° 0 mm 5 mps 761 mmHg 40%
    18:00 +17°C° 0 mm 5 mps 762 mmHg 42%
    19:00 +15°C° 0 mm 5 mps 762 mmHg 43%
    20:00 +13°C° 0 mm 5 mps 763 mmHg 45%
    21:00 +12°C° 0 mm 5 mps 764 mmHg 44%
    22:00 +11°C° 0 mm 4 mps 764 mmHg 43%
    23:00 +10°C° 0 mm 4 mps 765 mmHg 43%

    29 April, Monday

    Time Temperature Precipitation Wind Pressure Humidity
    00:00 +8°C° 0 mm 4 mps 765 mmHg 44%
    01:00 +7°C° 0 mm 4 mps 765 mmHg 45%
    02:00 +7°C° 0 mm 4 mps 766 mmHg 47%
    03:00 +6°C° 0 mm 4 mps 766 mmHg 49%
    04:00 +5°C° 0 mm 4 mps 766 mmHg 51%
    05:00 +5°C° 0 mm 4 mps 766 mmHg 53%
    06:00 +6°C° 0 mm 4 mps 766 mmHg 49%
    07:00 +7°C° 0 mm 4 mps 766 mmHg 45%
    08:00 +8°C° 0 mm 4 mps 766 mmHg 41%
    09:00 +11°C° 0 mm 4 mps 766 mmHg 37%
    10:00 +12°C° 0 mm 4 mps 766 mmHg 32%
    11:00 +13°C° 0 mm 3 mps 766 mmHg 28%
    12:00 +14°C° 0 mm 3 mps 766 mmHg 28%
    13:00 +16°C° 0 mm 3 mps 766 mmHg 27%
    14:00 +17°C° 0 mm 3 mps 765 mmHg 26%
    15:00 +17°C° 0 mm 3 mps 765 mmHg 27%
    16:00 +16°C° 0 mm 3 mps 765 mmHg 28%
    17:00 +15°C° 0 mm 4 mps 765 mmHg 29%
    18:00 +14°C° 0 mm 3 mps 765 mmHg 35%
    19:00 +12°C° 0 mm 3 mps 765 mmHg 40%
    20:00 +10°C° 0 mm 3 mps 765 mmHg 46%
    21:00 +9°C° 0 mm 3 mps 765 mmHg 48%
    22:00 +8°C° 0 mm 3 mps 765 mmHg 51%
    23:00 +7°C° 0 mm 2 mps 765 mmHg 53%

    30 April, Tuesday

    Time Temperature Precipitation Wind Pressure Humidity
    00:00 +7°C° 0 mm 2 mps 765 mmHg 55%
    01:00 +6°C° 0 mm 2 mps 765 mmHg 56%
    02:00 +6°C° 0 mm 2 mps 765 mmHg 57%
    03:00 +6°C° 0 mm 1 mps 765 mmHg 58%
    04:00 +6°C° 0 mm 1 mps 765 mmHg 59%
    05:00 +5°C° 0 mm 1 mps 764 mmHg 60%
    06:00 +7°C° 0 mm 1 mps 764 mmHg 55%
    07:00 +8°C° 0 mm 2 mps 764 mmHg 49%
    08:00 +10°C° 0 mm 2 mps 764 mmHg 44%
    09:00 +12°C° 0 mm 2 mps 764 mmHg 40%
    10:00 +12°C° 0 mm 3 mps 764 mmHg 35%
    11:00 +14°C° 0 mm 3 mps 763 mmHg 31%
    12:00 +14°C° 0 mm 4 mps 763 mmHg 31%
    13:00 +14°C° 0 mm 4 mps 763 mmHg 30%
    14:00 +14°C° 0 mm 4 mps 762 mmHg 30%
    15:00 +14°C° 0 mm 5 mps 762 mmHg 32%
    16:00 +13°C° 0 mm 5 mps 762 mmHg 34%
    17:00 +13°C° 0 mm 5 mps 761 mmHg 36%
    18:00 +11°C° 0 mm 4 mps 761 mmHg 42%
    19:00 +10°C° 0 mm 4 mps 761 mmHg 49%
    20:00 +7°C° 0 mm 4 mps 761 mmHg 55%
    21:00 +8°C° 0 mm 3 mps 762 mmHg 59%
    22:00 +7°C° 0 mm 3 mps 762 mmHg 63%
    23:00 +6°C° 0 mm 2 mps 762 mmHg 67%

    1 May, Wednesday

    Time Temperature Precipitation Wind Pressure Humidity
    00:00 +6°C° 0 mm 2 mps 762 mmHg 70%
    01:00 +7°C° 0 mm 1 mps 761 mmHg 73%
    02:00 +7°C° 0 mm 1 mps 761 mmHg 76%
    03:00 +6°C° 0 mm 1 mps 761 mmHg 78%
    04:00 +6°C° 0 mm 1 mps 761 mmHg 79%
    05:00 +6°C° 0 mm 1 mps 760 mmHg 80%
    06:00 +8°C° 0 mm 1 mps 760 mmHg 73%
    07:00 +10°C° 0 mm 1 mps 760 mmHg 67%
    08:00 +12°C° 0 mm 1 mps 760 mmHg 61%
    09:00 +13°C° 0 mm 1 mps 759 mmHg 54%
    10:00 +15°C° 0 mm 1 mps 759 mmHg 47%
    11:00 +16°C° 0 mm 1 mps 759 mmHg 41%
    12:00 +18°C° 0 mm 1 mps 758 mmHg 38%
    13:00 +18°C° 0 mm 1 mps 758 mmHg 35%
    14:00 +18°C° 0 mm 2 mps 757 mmHg 32%
    15:00 +18°C° 0 mm 2 mps 757 mmHg 34%
    16:00 +17°C° 0 mm 2 mps 756 mmHg 35%
    17:00 +17°C° 0 mm 2 mps 756 mmHg 37%
    18:00 +15°C° 0 mm 2 mps 756 mmHg 43%
    19:00 +13°C° 0 mm 2 mps 755 mmHg 49%
    20:00 +12°C° 0 mm 1 mps 755 mmHg 55%
    21:00 +10°C° 0 mm 2 mps 755 mmHg 58%
    22:00 +8°C° 0 mm 2 mps 754 mmHg 60%
    23:00 +7°C° 0 mm 2 mps 754 mmHg 63%
    Show more